,,,PA_Meas_PMT16A,,PR_Meas_QMR101_102,,RH_Meas_QMH101,,SR_Meas_QMS101,,TA_Meas_QMH101,,GenWind,,GenWind,
date,time,status,PA,status,PR,status,RH,status,SR,status,TA,status,DirAvg,status,SpdAvg,
2009-08-27, 00:00:04,VALID,1009.74,VALID,0,VALID,97.7622,VALID,0.105969,VALID,24.1793,VALID,106,VALID,1.34336,
2009-08-27, 00:01:04,VALID,1009.74,VALID,0,VALID,97.724,VALID,0.105969,VALID,24.1988,VALID,101,VALID,1.20234,
2009-08-27, 00:02:04,VALID,1009.74,VALID,0,VALID,97.7164,VALID,0.105969,VALID,24.2007,VALID,94,VALID,0.946484,
2009-08-27, 00:03:04,VALID,1009.7,VALID,0,VALID,97.7012,VALID,0.105969,VALID,24.2202,VALID,103,VALID,1.37969,
2009-08-27, 00:04:04,VALID,1009.68,VALID,0,VALID,97.6706,VALID,0.105969,VALID,24.2183,VALID,86,VALID,0.878516,
2009-08-27, 00:05:04,VALID,1009.67,VALID,0,VALID,97.6554,VALID,0.105969,VALID,24.2183,VALID,90,VALID,0.71875,
2009-08-27, 00:06:04,VALID,1009.63,VALID,0,VALID,97.6325,VALID,0.105969,VALID,24.2378,VALID,99,VALID,1.11836,
2009-08-27, 00:07:04,VALID,1009.6,VALID,0,VALID,97.602,VALID,0,VALID,24.2396,VALID,82,VALID,1.07148,
2009-08-27, 00:08:04,VALID,1009.56,VALID,0,VALID,97.5486,VALID,0,VALID,24.2396,VALID,87,VALID,0.639453,
2009-08-27, 00:09:04,VALID,1009.56,VALID,0,VALID,97.5258,VALID,0,VALID,24.2805,VALID,99,VALID,1.20586,
2009-08-27, 00:10:04,VALID,1009.59,VALID,0,VALID,97.4876,VALID,0,VALID,24.2786,VALID,90,VALID,0.771484,
2009-08-27, 00:11:04,VALID,1009.55,VALID,0,VALID,97.4342,VALID,0,VALID,24.3,VALID,72,VALID,1.50352,
2009-08-27, 00:12:04,VALID,1009.59,VALID,0,VALID,97.3809,VALID,0,VALID,24.2981,VALID,71,VALID,0.860156,
2009-08-27, 00:13:04,VALID,1009.55,VALID,0,VALID,97.3427,VALID,0,VALID,24.2981,VALID,37,VALID,0.676562,
2009-08-27, 00:14:04,VALID,1009.53,VALID,0,VALID,97.2817,VALID,0,VALID,24.3176,VALID,70,VALID,0.616797,
2009-08-27, 00:15:04,VALID,1009.51,VALID,0,VALID,97.2589,VALID,0,VALID,24.3176,VALID,58,VALID,0.607422,
2009-08-27, 00:16:04,VALID,1009.51,VALID,0,VALID,97.2436,VALID,0,VALID,24.3371,VALID,60,VALID,0.221875,
2009-08-27, 00:17:04,VALID,1009.5,VALID,0,VALID,97.2055,VALID,0,VALID,24.3371,VALID,54,VALID,1.1082,
2009-08-27, 00:18:04,VALID,1009.49,VALID,0,VALID,97.1597,VALID,0,VALID,24.3566,VALID,64,VALID,0.684375,
2009-08-27, 00:19:04,VALID,1009.49,VALID,0,VALID,97.1292,VALID,0,VALID,24.3371,VALID,44,VALID,0.473828,
2009-08-27, 00:20:04,VALID,1009.46,VALID,0,VALID,97.0911,VALID,0,VALID,24.3371,VALID,67,VALID,0.940234,
2009-08-27, 00:21:04,VALID,1009.44,VALID,0,VALID,97.1063,VALID,0,VALID,24.3566,VALID,58,VALID,0.563281,
2009-08-27, 00:22:04,VALID,1009.43,VALID,0,VALID,97.0911,VALID,0.105969,VALID,24.3547,VALID,83,VALID,0.49375,
2009-08-27, 00:23:04,VALID,1009.42,VALID,0,VALID,97.0911,VALID,0.105969,VALID,24.3956,VALID,87,VALID,0.598437,
2009-08-27, 00:24:04,VALID,1009.44,VALID,0,VALID,97.0911,VALID,0.105969,VALID,24.3742,VALID,78,VALID,0.452734,
2009-08-27, 00:25:04,VALID,1009.43,VALID,0,VALID,97.114,VALID,0.105969,VALID,24.4132,VALID,111,VALID,0.748438,
2009-08-27, 00:26:04,VALID,1009.45,VALID,0,VALID,97.1368,VALID,0.105969,VALID,24.3956,VALID,108,VALID,0.707031,
2009-08-27, 00:27:04,VALID,1009.45,VALID,0,VALID,97.1063,VALID,0.105969,VALID,24.3742,VALID,87,VALID,0.803125,
2009-08-27, 00:28:04,VALID,1009.46,VALID,0,VALID,97.0758,VALID,0,VALID,24.3742,VALID,135,VALID,0.78125,
2009-08-27, 00:29:04,VALID,1009.43,VALID,0,VALID,97.0606,VALID,0.105969,VALID,24.3956,VALID,93,VALID,0.687109,
2009-08-27, 00:30:04,VALID,1009.46,VALID,0,VALID,97.0453,VALID,0.105969,VALID,24.3937,VALID,91,VALID,0.439844,
2009-08-27, 00:31:04,VALID,1009.45,VALID,0,VALID,97.053,VALID,0.105969,VALID,24.3937,VALID,100,VALID,0.98125,
2009-08-27, 00:32:04,VALID,1009.44,VALID,0,VALID,97.0682,VALID,0.105969,VALID,24.4345,VALID,78,VALID,0.589063,
2009-08-27, 00:33:04,VALID,1009.42,VALID,0,VALID,97.1216,VALID,0.105969,VALID,24.4327,VALID,70,VALID,0.56875,
2009-08-27, 00:34:04,VALID,1009.41,VALID,0,VALID,97.1292,VALID,0,VALID,24.454,VALID,70,VALID,0.607031,
2009-08-27, 00:35:04,VALID,1009.39,VALID,0,VALID,97.1445,VALID,0.105969,VALID,24.4327,VALID,65,VALID,0.635938,
2009-08-27, 00:36:04,VALID,1009.36,VALID,0,VALID,97.114,VALID,0,VALID,24.4132,VALID,87,VALID,1.01797,
2009-08-27, 00:37:04,VALID,1009.37,VALID,0,VALID,97.0911,VALID,0,VALID,24.4364,VALID,87,VALID,0.913672,
2009-08-27, 00:38:04,VALID,1009.32,VALID,0,VALID,97.0835,VALID,0,VALID,24.4345,VALID,75,VALID,0.669531,
2009-08-27, 00:39:04,VALID,1009.31,VALID,0,VALID,97.1216,VALID,0,VALID,24.4364,VALID,79,VALID,0.596484,
2009-08-27, 00:40:04,VALID,1009.26,VALID,0,VALID,97.0835,VALID,0,VALID,24.4559,VALID,83,VALID,0.608594,
2009-08-27, 00:41:04,VALID,1009.22,VALID,0,VALID,97.0911,VALID,0,VALID,24.4559,VALID,81,VALID,0.650781,
2009-08-27, 00:42:04,VALID,1009.2,VALID,0,VALID,97.0835,VALID,0,VALID,24.4345,VALID,88,VALID,0.825391,
2009-08-27, 00:43:04,VALID,1009.18,VALID,0,VALID,97.0835,VALID,0,VALID,24.4559,VALID,96,VALID,0.934375,
2009-08-27, 00:44:04,VALID,1009.17,VALID,0,VALID,97.053,VALID,0,VALID,24.4559,VALID,113,VALID,0.805078,
2009-08-27, 00:45:04,VALID,1009.16,VALID,0,VALID,97.053,VALID,0,VALID,24.4345,VALID,138,VALID,0.852734,
2009-08-27, 00:46:04,VALID,1009.17,VALID,0,VALID,97.0072,VALID,0,VALID,24.4559,VALID,131,VALID,0.750781,
2009-08-27, 00:47:04,VALID,1009.17,VALID,0,VALID,96.992,VALID,0,VALID,24.4364,VALID,128,VALID,0.796875,
2009-08-27, 00:48:04,VALID,1009.15,VALID,0,VALID,96.9843,VALID,0,VALID,24.3956,VALID,127,VALID,0.726563,
2009-08-27, 00:49:04,VALID,1009.15,VALID,0,VALID,97.0148,VALID,0,VALID,24.3956,VALID,99,VALID,0.500781,
2009-08-27, 00:50:04,VALID,1009.14,VALID,0,VALID,97.0606,VALID,0,VALID,24.4169,VALID,108,VALID,0.571484,
2009-08-27, 00:51:04,VALID,1009.15,VALID,0,VALID,97.0682,VALID,0,VALID,24.3974,VALID,103,VALID,0.715234,
2009-08-27, 00:52:04,VALID,1009.16,VALID,0,VALID,97.0835,VALID,0,VALID,24.3956,VALID,113,VALID,0.567187,
2009-08-27, 00:53:04,VALID,1009.17,VALID,0,VALID,97.0911,VALID,0,VALID,24.3761,VALID,118,VALID,0.926953,
2009-08-27, 00:54:04,VALID,1009.13,VALID,0,VALID,97.0911,VALID,0,VALID,24.3761,VALID,101,VALID,0.389844,
2009-08-27, 00:55:04,VALID,1009.14,VALID,0,VALID,97.114,VALID,0,VALID,24.3761,VALID,113,VALID,0.604688,
2009-08-27, 00:56:04,VALID,1009.11,VALID,0,VALID,97.1216,VALID,0,VALID,24.3761,VALID,126,VALID,0.497656,
2009-08-27, 00:57:04,VALID,1009.14,VALID,0,VALID,97.1445,VALID,0,VALID,24.3956,VALID,126,VALID,0.553516,
2009-08-27, 00:58:04,VALID,1009.13,VALID,0,VALID,97.1521,VALID,0,VALID,24.3761,VALID,126,VALID,0.582031,
2009-08-27, 00:59:04,VALID,1009.11,VALID,0,VALID,97.1597,VALID,0,VALID,24.3761,VALID,124,VALID,0.381641,
2009-08-27, 01:00:04,VALID,1009.13,VALID,0,VALID,97.1902,VALID,0,VALID,24.3974,VALID,123,VALID,0.686719,
2009-08-27, 01:01:04,VALID,1009.13,VALID,0,VALID,97.1902,VALID,0,VALID,24.3761,VALID,116,VALID,1.30078,
2009-08-27, 01:02:04,VALID,1009.11,VALID,0,VALID,97.1902,VALID,0.105969,VALID,24.3761,VALID,129,VALID,0.780078,
2009-08-27, 01:03:04,VALID,1009.09,VALID,0,VALID,97.1979,VALID,0,VALID,24.3956,VALID,103,VALID,0.639453,
2009-08-27, 01:04:04,VALID,1009.12,VALID,0,VALID,97.1826,VALID,0,VALID,24.3761,VALID,101,VALID,0.769922,
2009-08-27, 01:05:04,VALID,1009.11,VALID,0,VALID,97.1445,VALID,0,VALID,24.3761,VALID,112,VALID,0.475,
2009-08-27, 01:06:04,VALID,1009.11,VALID,0,VALID,97.1674,VALID,0,VALID,24.3956,VALID,117,VALID,0.491406,
2009-08-27, 01:07:04,VALID,1009.15,VALID,0,VALID,97.2055,VALID,0,VALID,24.4345,VALID,118,VALID,0.435937,
2009-08-27, 01:08:04,VALID,1009.16,VALID,0,VALID,97.2055,VALID,0,VALID,24.4345,VALID,149,VALID,0.787891,
2009-08-27, 01:09:04,VALID,1009.17,VALID,0,VALID,97.1979,VALID,0,VALID,24.3742,VALID,143,VALID,0.622656,
2009-08-27, 01:10:04,VALID,1009.17,VALID,0,VALID,97.1826,VALID,0,VALID,24.3742,VALID,143,VALID,0.075,
2009-08-27, 01:11:04,VALID,1009.19,VALID,0,VALID,97.175,VALID,0,VALID,24.3742,VALID,122,VALID,0.669141,
2009-08-27, 01:12:04,VALID,1009.22,VALID,0,VALID,97.2131,VALID,0.105969,VALID,24.415,VALID,122,VALID,0.541797,
2009-08-27, 01:13:04,VALID,1009.24,VALID,0,VALID,97.2131,VALID,0,VALID,24.3937,VALID,132,VALID,0.63125,
2009-08-27, 01:14:04,VALID,1009.24,VALID,0,VALID,97.236,VALID,0,VALID,24.4345,VALID,112,VALID,0.505078,
2009-08-27, 01:15:04,VALID,1009.22,VALID,0,VALID,97.2436,VALID,0,VALID,24.4132,VALID,111,VALID,0.568359,
2009-08-27, 01:16:04,VALID,1009.24,VALID,0,VALID,97.2512,VALID,0,VALID,24.4345,VALID,97,VALID,0.748828,
2009-08-27, 01:17:04,VALID,1009.22,VALID,0,VALID,97.2207,VALID,0,VALID,24.4132,VALID,98,VALID,0.845312,
2009-08-27, 01:18:04,VALID,1009.23,VALID,0,VALID,97.1902,VALID,0,VALID,24.4345,VALID,98,VALID,0.46875,
2009-08-27, 01:19:04,VALID,1009.22,VALID,0,VALID,97.1445,VALID,0,VALID,24.4345,VALID,134,VALID,0.950781,
2009-08-27, 01:20:04,VALID,1009.17,VALID,0,VALID,97.0835,VALID,0,VALID,24.4345,VALID,96,VALID,0.5125,
2009-08-27, 01:21:04,VALID,1009.13,VALID,0,VALID,97.0682,VALID,0,VALID,24.4327,VALID,98,VALID,0.477734,
2009-08-27, 01:22:04,VALID,1009.15,VALID,0,VALID,97.0377,VALID,0,VALID,24.454,VALID,98,VALID,0.776172,
2009-08-27, 01:23:04,VALID,1009.13,VALID,0,VALID,96.9843,VALID,0,VALID,24.454,VALID,102,VALID,0.571875,
2009-08-27, 01:24:04,VALID,1009.1,VALID,0,VALID,96.9691,VALID,0,VALID,24.4327,VALID,110,VALID,0.24375,
2009-08-27, 01:25:04,VALID,1009.07,VALID,0,VALID,96.9843,VALID,0,VALID,24.454,VALID,157,VALID,0.68125,
2009-08-27, 01:26:04,VALID,1009.05,VALID,0,VALID,96.9462,VALID,0,VALID,24.4345,VALID,157,VALID,0.609766,
2009-08-27, 01:27:04,VALID,1009.02,VALID,0,VALID,96.9538,VALID,0,VALID,24.4345,VALID,152,VALID,0.819531,
2009-08-27, 01:28:04,VALID,1008.98,VALID,0,VALID,96.9462,VALID,0,VALID,24.415,VALID,149,VALID,0.297656,
2009-08-27, 01:29:04,VALID,1008.99,VALID,0,VALID,96.9462,VALID,0,VALID,24.3956,VALID,149,VALID,0.501953,
2009-08-27, 01:30:04,VALID,1008.97,VALID,0,VALID,96.9767,VALID,0.105969,VALID,24.3956,VALID,149,VALID,0.294141,
2009-08-27, 01:31:04,VALID,1008.95,VALID,0,VALID,96.992,VALID,0,VALID,24.3742,VALID,149,VALID,0.308203,
2009-08-27, 01:32:04,VALID,1008.92,VALID,0,VALID,97.0148,VALID,0,VALID,24.3956,VALID,149,VALID,0,
2009-08-27, 01:33:04,VALID,1008.95,VALID,0,VALID,97.053,VALID,0,VALID,24.3956,VALID,149,VALID,0,
2009-08-27, 01:34:04,VALID,1008.93,VALID,0,VALID,97.0682,VALID,0,VALID,24.3547,VALID,149,VALID,0,
2009-08-27, 01:35:04,VALID,1008.93,VALID,0,VALID,97.0682,VALID,0,VALID,24.3761,VALID,149,VALID,0.171875,
2009-08-27, 01:36:04,VALID,1008.91,VALID,0,VALID,97.1063,VALID,0,VALID,24.3956,VALID,149,VALID,0.225781,
2009-08-27, 01:37:04,VALID,1008.91,VALID,0,VALID,97.1368,VALID,0,VALID,24.3761,VALID,149,VALID,0.0191406,
2009-08-27, 01:38:04,VALID,1008.88,VALID,0,VALID,97.1368,VALID,0,VALID,24.3547,VALID,149,VALID,0,
2009-08-27, 01:39:04,VALID,1008.85,VALID,0,VALID,97.1445,VALID,0,VALID,24.3761,VALID,149,VALID,0,
2009-08-27, 01:40:04,VALID,1008.86,VALID,0,VALID,97.1521,VALID,0,VALID,24.3956,VALID,149,VALID,0.0527344,
2009-08-27, 01:41:04,VALID,1008.84,VALID,0,VALID,97.1902,VALID,0.105969,VALID,24.3547,VALID,128,VALID,0.372266,
2009-08-27, 01:42:04,VALID,1008.82,VALID,0,VALID,97.175,VALID,0.105969,VALID,24.3761,VALID,118,VALID,0.15,
2009-08-27, 01:43:04,VALID,1008.81,VALID,0,VALID,97.175,VALID,0,VALID,24.3761,VALID,79,VALID,0.342187,
2009-08-27, 01:44:04,VALID,1008.8,VALID,0,VALID,97.1597,VALID,0.105969,VALID,24.3547,VALID,79,VALID,0.333594,
2009-08-27, 01:45:04,VALID,1008.75,VALID,0,VALID,97.1368,VALID,0.105969,VALID,24.3742,VALID,73,VALID,0.210156,
2009-08-27, 01:46:04,VALID,1008.75,VALID,0,VALID,97.1368,VALID,0,VALID,24.3761,VALID,6,VALID,0.485547,
2009-08-27, 01:47:04,VALID,1008.73,VALID,0,VALID,97.1292,VALID,0.105969,VALID,24.3547,VALID,6,VALID,0.291016,
2009-08-27, 01:48:04,VALID,1008.73,VALID,0,VALID,97.1292,VALID,0,VALID,24.3566,VALID,6,VALID,0.375,
2009-08-27, 01:49:04,VALID,1008.73,VALID,0,VALID,97.175,VALID,0.105969,VALID,24.3176,VALID,6,VALID,0.447656,
2009-08-27, 01:50:04,VALID,1008.73,VALID,0,VALID,97.2131,VALID,0,VALID,24.2963,VALID,6,VALID,0.220313,
2009-08-27, 01:51:04,VALID,1008.72,VALID,0,VALID,97.236,VALID,0.105969,VALID,24.2768,VALID,25,VALID,0.473047,
2009-08-27, 01:52:04,VALID,1008.73,VALID,0,VALID,97.2665,VALID,0,VALID,24.2786,VALID,70,VALID,0.54375,
2009-08-27, 01:53:04,VALID,1008.74,VALID,0,VALID,97.3046,VALID,0.105969,VALID,24.2573,VALID,79,VALID,0.532422,
2009-08-27, 01:54:04,VALID,1008.74,VALID,0,VALID,97.3199,VALID,0.105969,VALID,24.2591,VALID,76,VALID,0.266016,
2009-08-27, 01:55:04,VALID,1008.74,VALID,0,VALID,97.3504,VALID,0,VALID,24.2591,VALID,76,VALID,0.00078125,
2009-08-27, 01:56:04,VALID,1008.73,VALID,0,VALID,97.358,VALID,0,VALID,24.2183,VALID,76,VALID,0,
2009-08-27, 01:57:04,VALID,1008.71,VALID,0,VALID,97.3809,VALID,0,VALID,24.2183,VALID,76,VALID,0,
2009-08-27, 01:58:04,VALID,1008.72,VALID,0,VALID,97.4266,VALID,0,VALID,24.2396,VALID,75,VALID,0.458203,
2009-08-27, 01:59:04,VALID,1008.68,VALID,0,VALID,97.4419,VALID,0,VALID,24.1988,VALID,61,VALID,0.1,
2009-08-27, 02:00:04,VALID,1008.7,VALID,0,VALID,97.4571,VALID,0,VALID,24.1988,VALID,15,VALID,0.216406,
2009-08-27, 02:01:04,VALID,1008.68,VALID,0,VALID,97.4648,VALID,0,VALID,24.2202,VALID,12,VALID,0.29375,
2009-08-27, 02:02:04,VALID,1008.64,VALID,0,VALID,97.4724,VALID,0.105969,VALID,24.1793,VALID,13,VALID,0.378516,
2009-08-27, 02:03:04,VALID,1008.65,VALID,0,VALID,97.4724,VALID,0,VALID,24.1599,VALID,3,VALID,0.164453,
2009-08-27, 02:04:04,VALID,1008.63,VALID,0,VALID,97.4648,VALID,0.105969,VALID,24.1404,VALID,49,VALID,0.536328,
2009-08-27, 02:05:04,VALID,1008.64,VALID,0,VALID,97.4876,VALID,0,VALID,24.1617,VALID,47,VALID,0.541016,
2009-08-27, 02:06:04,VALID,1008.66,VALID,0,VALID,97.4724,VALID,0.105969,VALID,24.1209,VALID,62,VALID,0.05625,
2009-08-27, 02:07:04,VALID,1008.65,VALID,0,VALID,97.4953,VALID,0,VALID,24.1422,VALID,62,VALID,0.144922,
2009-08-27, 02:08:04,VALID,1008.65,VALID,0,VALID,97.4953,VALID,0.105969,VALID,24.1422,VALID,62,VALID,0,
2009-08-27, 02:09:04,VALID,1008.64,VALID,0,VALID,97.5105,VALID,0.105969,VALID,24.1209,VALID,62,VALID,0,
2009-08-27, 02:10:04,VALID,1008.63,VALID,0,VALID,97.5181,VALID,0.105969,VALID,24.1014,VALID,62,VALID,0,
2009-08-27, 02:11:04,VALID,1008.58,VALID,0,VALID,97.5105,VALID,0.105969,VALID,24.1014,VALID,62,VALID,0,
2009-08-27, 02:12:04,VALID,1008.54,VALID,0,VALID,97.5105,VALID,0,VALID,24.1014,VALID,62,VALID,0,
2009-08-27, 02:13:04,VALID,1008.57,VALID,0,VALID,97.5105,VALID,0.105969,VALID,24.1014,VALID,62,VALID,0,
2009-08-27, 02:14:04,VALID,1008.54,VALID,0,VALID,97.4953,VALID,0.105969,VALID,24.1032,VALID,62,VALID,0.0117188,
2009-08-27, 02:15:04,VALID,1008.53,VALID,0,VALID,97.4953,VALID,0,VALID,24.1032,VALID,62,VALID,0,
2009-08-27, 02:16:04,VALID,1008.5,VALID,0,VALID,97.4724,VALID,0.105969,VALID,24.0624,VALID,62,VALID,0.0125,
2009-08-27, 02:17:04,VALID,1008.5,VALID,0,VALID,97.4648,VALID,0,VALID,24.0429,VALID,62,VALID,0.101172,
2009-08-27, 02:18:04,VALID,1008.52,VALID,0,VALID,97.4571,VALID,0,VALID,24.0643,VALID,62,VALID,0.214062,
2009-08-27, 02:19:04,VALID,1008.45,VALID,0,VALID,97.4648,VALID,0,VALID,24.0448,VALID,62,VALID,0.271094,
2009-08-27, 02:20:04,VALID,1008.49,VALID,0,VALID,97.4724,VALID,0,VALID,24.0235,VALID,62,VALID,0.308984,
2009-08-27, 02:21:04,VALID,1008.48,VALID,0,VALID,97.4953,VALID,0.105969,VALID,24.0253,VALID,63,VALID,0.573828,
2009-08-27, 02:22:04,VALID,1008.47,VALID,0,VALID,97.4953,VALID,0.105969,VALID,23.9845,VALID,63,VALID,0.355469,
2009-08-27, 02:23:04,VALID,1008.48,VALID,0,VALID,97.4953,VALID,0,VALID,23.9668,VALID,63,VALID,0.363672,
2009-08-27, 02:24:04,VALID,1008.46,VALID,0,VALID,97.5029,VALID,0,VALID,23.9668,VALID,64,VALID,0.337109,
2009-08-27, 02:25:04,VALID,1008.48,VALID,0,VALID,97.48,VALID,0,VALID,23.9668,VALID,71,VALID,0.362891,
2009-08-27, 02:26:04,VALID,1008.46,VALID,0,VALID,97.5105,VALID,0,VALID,23.965,VALID,91,VALID,0.596094,
2009-08-27, 02:27:04,VALID,1008.44,VALID,0,VALID,97.5105,VALID,0,VALID,23.965,VALID,82,VALID,0.724219,
2009-08-27, 02:28:04,VALID,1008.44,VALID,0,VALID,97.5029,VALID,0.105969,VALID,23.965,VALID,85,VALID,0.398828,
2009-08-27, 02:29:04,VALID,1008.45,VALID,0,VALID,97.5181,VALID,0.105969,VALID,23.9668,VALID,84,VALID,0,
2009-08-27, 02:30:04,VALID,1008.46,VALID,0,VALID,97.4953,VALID,0.105969,VALID,23.965,VALID,84,VALID,0,
2009-08-27, 02:31:04,VALID,1008.46,VALID,0,VALID,97.48,VALID,0.105969,VALID,23.965,VALID,84,VALID,0,
2009-08-27, 02:32:04,VALID,1008.45,VALID,0,VALID,97.48,VALID,0,VALID,23.9668,VALID,84,VALID,0,
2009-08-27, 02:33:04,VALID,1008.43,VALID,0,VALID,97.4876,VALID,0,VALID,23.9668,VALID,84,VALID,0,
2009-08-27, 02:34:04,VALID,1008.43,VALID,0,VALID,97.48,VALID,0.105969,VALID,23.9473,VALID,84,VALID,0,
2009-08-27, 02:35:04,VALID,1008.44,VALID,0,VALID,97.48,VALID,0,VALID,23.926,VALID,84,VALID,0,
2009-08-27, 02:36:04,VALID,1008.44,VALID,0,VALID,97.4876,VALID,0.105969,VALID,23.9473,VALID,84,VALID,0,
2009-08-27, 02:37:04,VALID,1008.43,VALID,0,VALID,97.4876,VALID,0,VALID,23.9278,VALID,84,VALID,0,
2009-08-27, 02:38:04,VALID,1008.46,VALID,0,VALID,97.48,VALID,0,VALID,23.9084,VALID,84,VALID,0,
2009-08-27, 02:39:04,VALID,1008.43,VALID,0,VALID,97.4876,VALID,0,VALID,23.9084,VALID,84,VALID,0,
2009-08-27, 02:40:04,VALID,1008.48,VALID,0,VALID,97.5105,VALID,0,VALID,23.8676,VALID,84,VALID,0,
2009-08-27, 02:41:04,VALID,1008.47,VALID,0,VALID,97.5105,VALID,0,VALID,23.8694,VALID,84,VALID,0,
2009-08-27, 02:42:04,VALID,1008.47,VALID,0,VALID,97.5029,VALID,0,VALID,23.8499,VALID,84,VALID,0,
2009-08-27, 02:43:05,VALID,1008.45,VALID,0,VALID,97.5258,VALID,0,VALID,23.8499,VALID,84,VALID,0,
2009-08-27, 02:44:05,VALID,1008.45,VALID,0,VALID,97.5334,VALID,0.105969,VALID,23.8499,VALID,84,VALID,0.402734,
2009-08-27, 02:45:05,VALID,1008.45,VALID,0,VALID,97.5563,VALID,0,VALID,23.8499,VALID,53,VALID,0.289844,
2009-08-27, 02:46:05,VALID,1008.45,VALID,0,VALID,97.5868,VALID,0,VALID,23.8304,VALID,53,VALID,0.343359,
2009-08-27, 02:47:05,VALID,1008.45,VALID,0,VALID,97.5791,VALID,0,VALID,23.8304,VALID,53,VALID,0.188672,
2009-08-27, 02:48:05,VALID,1008.45,VALID,0,VALID,97.5791,VALID,0,VALID,23.7896,VALID,53,VALID,0,
2009-08-27, 02:49:05,VALID,1008.49,VALID,0,VALID,97.602,VALID,0,VALID,23.8109,VALID,53,VALID,0.378906,
2009-08-27, 02:50:05,VALID,1008.47,VALID,0,VALID,97.602,VALID,0,VALID,23.7914,VALID,56,VALID,0.275391,
2009-08-27, 02:51:05,VALID,1008.47,VALID,0,VALID,97.6249,VALID,0,VALID,23.7914,VALID,55,VALID,0.4,
2009-08-27, 02:52:05,VALID,1008.49,VALID,0,VALID,97.6173,VALID,0,VALID,23.772,VALID,55,VALID,0,
2009-08-27, 02:53:05,VALID,1008.48,VALID,0,VALID,97.6325,VALID,0,VALID,23.772,VALID,55,VALID,0.025,
2009-08-27, 02:54:05,VALID,1008.52,VALID,0,VALID,97.6401,VALID,0,VALID,23.772,VALID,56,VALID,0.152344,
2009-08-27, 02:55:05,VALID,1008.47,VALID,0,VALID,97.6478,VALID,0.105969,VALID,23.7914,VALID,55,VALID,0.194531,
2009-08-27, 02:56:05,VALID,1008.51,VALID,0,VALID,97.6706,VALID,0.105969,VALID,23.772,VALID,55,VALID,0.0476562,
2009-08-27, 02:57:05,VALID,1008.51,VALID,0,VALID,97.6554,VALID,0.105969,VALID,23.772,VALID,55,VALID,0.173047,
2009-08-27, 02:58:05,VALID,1008.51,VALID,0,VALID,97.663,VALID,0.105969,VALID,23.7914,VALID,55,VALID,0.274219,
2009-08-27, 02:59:05,VALID,1008.51,VALID,0,VALID,97.6706,VALID,0,VALID,23.772,VALID,56,VALID,0.245703,
2009-08-27, 03:00:05,VALID,1008.51,VALID,0,VALID,97.6859,VALID,0.105969,VALID,23.772,VALID,56,VALID,0.247266,
2009-08-27, 03:01:05,VALID,1008.56,VALID,0,VALID,97.6706,VALID,0.105969,VALID,23.7507,VALID,56,VALID,0.401172,
2009-08-27, 03:02:05,VALID,1008.56,VALID,0,VALID,97.6706,VALID,0.105969,VALID,23.7701,VALID,56,VALID,0.267969,
2009-08-27, 03:03:05,VALID,1008.56,VALID,0,VALID,97.6859,VALID,0,VALID,23.772,VALID,56,VALID,0.216406,
2009-08-27, 03:04:05,VALID,1008.57,VALID,0,VALID,97.7088,VALID,0,VALID,23.7525,VALID,56,VALID,0.0867188,
2009-08-27, 03:05:05,VALID,1008.57,VALID,0,VALID,97.6935,VALID,0,VALID,23.7312,VALID,43,VALID,0.446484,
2009-08-27, 03:06:05,VALID,1008.56,VALID,0,VALID,97.7012,VALID,0,VALID,23.7543,VALID,35,VALID,0.55,
2009-08-27, 03:07:05,VALID,1008.58,VALID,0,VALID,97.6935,VALID,0,VALID,23.7153,VALID,35,VALID,0.313281,
2009-08-27, 03:08:05,VALID,1008.59,VALID,0,VALID,97.7012,VALID,0,VALID,23.6958,VALID,53,VALID,0.434766,
2009-08-27, 03:09:05,VALID,1008.62,VALID,0,VALID,97.724,VALID,0,VALID,23.6958,VALID,53,VALID,0.108984,
2009-08-27, 03:10:05,VALID,1008.61,VALID,0,VALID,97.724,VALID,0,VALID,23.655,VALID,61,VALID,0.493359,
2009-08-27, 03:11:05,VALID,1008.65,VALID,0,VALID,97.7393,VALID,0,VALID,23.6763,VALID,61,VALID,0.0109375,
2009-08-27, 03:12:05,VALID,1008.65,VALID,0,VALID,97.7393,VALID,0,VALID,23.655,VALID,61,VALID,0,
2009-08-27, 03:13:05,VALID,1008.68,VALID,0,VALID,97.7469,VALID,0,VALID,23.6763,VALID,61,VALID,0.116797,
2009-08-27, 03:14:05,VALID,1008.66,VALID,0,VALID,97.7545,VALID,0,VALID,23.6356,VALID,61,VALID,0.264453,
2009-08-27, 03:15:05,VALID,1008.68,VALID,0,VALID,97.7774,VALID,0,VALID,23.6356,VALID,61,VALID,0.0261719,
2009-08-27, 03:16:05,VALID,1008.68,VALID,0,VALID,97.785,VALID,0,VALID,23.6161,VALID,61,VALID,0.00664063,
2009-08-27, 03:17:05,VALID,1008.67,VALID,0,VALID,97.785,VALID,0,VALID,23.6373,VALID,61,VALID,0,
2009-08-27, 03:18:05,VALID,1008.64,VALID,0,VALID,97.8003,VALID,0,VALID,23.6179,VALID,61,VALID,0.120312,
2009-08-27, 03:19:05,VALID,1008.64,VALID,0,VALID,97.8155,VALID,0,VALID,23.6179,VALID,56,VALID,0.0304688,
2009-08-27, 03:20:05,VALID,1008.67,VALID,0,VALID,97.8232,VALID,0,VALID,23.5966,VALID,43,VALID,0.433203,
2009-08-27, 03:21:05,VALID,1008.66,VALID,0,VALID,97.8155,VALID,0,VALID,23.5771,VALID,43,VALID,0.208594,
2009-08-27, 03:22:05,VALID,1008.68,VALID,0,VALID,97.8384,VALID,0,VALID,23.5576,VALID,43,VALID,0,
2009-08-27, 03:23:05,VALID,1008.69,VALID,0,VALID,97.8308,VALID,0,VALID,23.5576,VALID,43,VALID,0,
2009-08-27, 03:24:05,VALID,1008.69,VALID,0,VALID,97.846,VALID,0,VALID,23.5576,VALID,43,VALID,0,
2009-08-27, 03:25:05,VALID,1008.72,VALID,0,VALID,97.8613,VALID,0,VALID,23.5381,VALID,43,VALID,0,
2009-08-27, 03:26:05,VALID,1008.68,VALID,0,VALID,97.8537,VALID,0,VALID,23.5381,VALID,43,VALID,0,
2009-08-27, 03:27:05,VALID,1008.7,VALID,0,VALID,97.8613,VALID,0,VALID,23.5399,VALID,43,VALID,0,
2009-08-27, 03:28:05,VALID,1008.73,VALID,0,VALID,97.8689,VALID,0,VALID,23.5186,VALID,43,VALID,0,
2009-08-27, 03:29:05,VALID,1008.74,VALID,0,VALID,97.8842,VALID,0,VALID,23.4992,VALID,43,VALID,0,
2009-08-27, 03:30:05,VALID,1008.78,VALID,0,VALID,97.8689,VALID,0,VALID,23.4992,VALID,43,VALID,0,
2009-08-27, 03:31:05,VALID,1008.76,VALID,0,VALID,97.8765,VALID,0,VALID,23.4992,VALID,43,VALID,0,
2009-08-27, 03:32:05,VALID,1008.74,VALID,0,VALID,97.9071,VALID,0,VALID,23.4797,VALID,43,VALID,0,
2009-08-27, 03:33:05,VALID,1008.76,VALID,0,VALID,97.8765,VALID,0,VALID,23.4602,VALID,48,VALID,0,
2009-08-27, 03:34:05,VALID,1008.73,VALID,0,VALID,97.8918,VALID,0,VALID,23.4602,VALID,44,VALID,0,
2009-08-27, 03:35:05,VALID,1008.71,VALID,0,VALID,97.8765,VALID,0,VALID,23.4602,VALID,49,VALID,0,
2009-08-27, 03:36:05,VALID,1008.69,VALID,0,VALID,97.8842,VALID,0,VALID,23.4407,VALID,49,VALID,0,
2009-08-27, 03:37:05,VALID,1008.69,VALID,0,VALID,97.8918,VALID,0.105969,VALID,23.4194,VALID,49,VALID,0,
2009-08-27, 03:38:05,VALID,1008.7,VALID,0,VALID,97.8918,VALID,0.105969,VALID,23.4194,VALID,49,VALID,0,
2009-08-27, 03:39:05,VALID,1008.71,VALID,0,VALID,97.8918,VALID,0.105969,VALID,23.4,VALID,49,VALID,0,
2009-08-27, 03:40:05,VALID,1008.7,VALID,0,VALID,97.8842,VALID,0.105969,VALID,23.4212,VALID,49,VALID,0,
2009-08-27, 03:41:05,VALID,1008.71,VALID,0,VALID,97.8765,VALID,0.105969,VALID,23.3805,VALID,49,VALID,0,
2009-08-27, 03:42:05,VALID,1008.72,VALID,0,VALID,97.8765,VALID,0.105969,VALID,23.3805,VALID,49,VALID,0,
2009-08-27, 03:43:05,VALID,1008.7,VALID,0,VALID,97.8765,VALID,0.105969,VALID,23.361,VALID,49,VALID,0,
2009-08-27, 03:44:05,VALID,1008.72,VALID,0,VALID,97.8613,VALID,0.105969,VALID,23.3415,VALID,49,VALID,0,
2009-08-27, 03:45:05,VALID,1008.73,VALID,0,VALID,97.8613,VALID,0.105969,VALID,23.3415,VALID,49,VALID,0,